Location: Kouchibouguac National Park
(46.8081°N, 64.9088°W)
Time: 08:18:15
(UTC-03:00)

Amateur Radio Satellites - All Passes

Search period start: 18 October 2017 07:48
Search period end: 19 October 2017 07:48
Location: Kouchibouguac National Park, 46.8081°N, 64.9088°W

Satellite Date Start Highest point End Downlink Frequencies (MHz)
Time Altitude Azimuth
O/OREOS (USA 219) 18 Oct 07:50:25 07:55:00 63° 249° (WSW) 07:59:31 437.305
UWE-3 18 Oct 07:52:42 07:53:47 11° 85° (E) 07:54:53 435.000/436.395/437.385
NUDT-PHONESAT 18 Oct 07:54:54 07:58:34 79° 286° (WNW) 08:02:14 437.300
XW-2B 18 Oct 07:56:52 08:00:32 53° 287° (WNW) 08:04:11 145.730 - 145.750
AO-7 18 Oct 08:04:36 08:09:09 16° 321° (NW) 08:13:42 .
CUTE 1.7 + AOD 2 18 Oct 08:09:56 08:13:58 43° 98° (E) 08:17:59 437.475
XW-2C 18 Oct 08:20:16 08:23:33 29° 291° (WNW) 08:26:48 145.795 - 145.815
RS-15 18 Oct 08:21:12 08:32:31 41° 25° (NNE) 08:43:19 29.354- 29.394
SEEDS 18 Oct 08:22:22 08:26:14 36° 97° (E) 08:30:06 437.485
XW-2A 18 Oct 08:36:43 08:39:40 28° 96° (E) 08:42:35 145.665 - 145.685
CUBEBUG 2 18 Oct 08:42:38 08:47:18 58° 100° (E) 08:51:47 437.445
HO-68 18 Oct 08:47:38 08:54:54 81° 106° (ESE) 09:02:07 435.675
AO-73 18 Oct 08:50:13 08:53:29 20° 91° (E) 08:56:40 145.935
AAUSAT CUBESAT 2 18 Oct 08:54:21 08:58:11 36° 97° (E) 09:02:00 437.432
NO-84 18 Oct 09:05:30 09:08:57 26° 7° (N) 09:12:12 435.350 FM
XW-2F 18 Oct 09:09:45 09:10:30 10° 300° (WNW) 09:11:14 145.980 - 146.000
ZACube-1 18 Oct 09:10:05 09:14:10 35° 96° (E) 09:18:08 437.345
KAITUO 1B 18 Oct 09:11:55 09:13:19 12° 299° (WNW) 09:14:43 145.475/437.950
CUTE-I 18 Oct 09:13:53 09:18:07 24° 299° (WNW) 09:22:18 437.470
FO-29 18 Oct 09:14:25 09:19:37 79° 73° (ENE) 09:25:14 435.910
YUBILEINY 18 Oct 09:15:51 09:22:56 29° 81° (E) 09:30:02 435.215
SO-50 18 Oct 09:19:21 09:23:40 46° 314° (NW) 09:28:03 436.795
UNISAT 6 18 Oct 09:22:58 09:26:55 28° 65° (ENE) 09:30:56 437.425
STRAND 1 18 Oct 09:23:13 09:26:18 16° 271° (W) 09:29:24 437.568
UWE-3 18 Oct 09:26:20 09:30:56 87° 279° (W) 09:35:23 435.000/436.395/437.385
PCSat 18 Oct 09:27:01 09:32:12 48° 115° (ESE) 09:37:25 145.827
TIGRISAT 18 Oct 09:38:10 09:42:23 36° 68° (ENE) 09:46:41 435.000
PRISM 18 Oct 09:41:10 09:43:58 18° 63° (ENE) 09:46:48 437.425
CUTE 1.7 + AOD 2 18 Oct 09:46:26 09:49:31 20° 296° (WNW) 09:52:36 437.475
Oscar 11 18 Oct 09:51:21 09:55:37 58° 100° (E) 09:59:51 .
SEEDS 18 Oct 09:58:27 10:01:44 23° 295° (WNW) 10:05:01 437.485
XW-2A 18 Oct 10:09:47 10:12:12 19° 294° (WNW) 10:14:38 145.665 - 145.685
CUBEBUG 2 18 Oct 10:20:10 10:23:26 19° 299° (WNW) 10:26:40 437.445
AO-73 18 Oct 10:25:44 10:29:57 44° 290° (WNW) 10:34:02 145.935
AIST 2D 18 Oct 10:26:36 10:27:47 11° 62° (ENE) 10:28:57 435.315
AAUSAT CUBESAT 2 18 Oct 10:30:13 10:33:27 23° 295° (WNW) 10:36:40 437.432
EO-88 18 Oct 10:34:27 10:37:08 19° 93° (E) 10:39:47 145.990 - 145.960
RS-15 18 Oct 10:34:37 10:46:44 88° 54° (NE) 10:58:09 29.354- 29.394
HO-68 18 Oct 10:36:19 10:41:54 25° 306° (NW) 10:47:29 435.675
Max Valier Satellite 18 Oct 10:38:00 10:41:15 29° 96° (E) 10:44:29 145.860
NO-84 18 Oct 10:43:06 10:46:58 57° 28° (NNE) 10:50:31 435.350 FM
DELFI C3 18 Oct 10:46:00 10:49:53 51° 100° (E) 10:53:44 145.870
ZACube-1 18 Oct 10:46:36 10:50:18 26° 295° (WNW) 10:53:53 437.345
EO-79 18 Oct 10:53:23 10:55:10 12° 58° (ENE) 10:56:57 145.935-145.965
POLYITAN 1 18 Oct 10:57:00 10:59:08 14° 59° (ENE) 11:01:15 437.675
UNISAT 6 18 Oct 10:59:12 11:03:29 37° 264° (W) 11:07:51 437.425
FO-29 18 Oct 11:02:50 11:05:37 14° 274° (W) 11:08:29 435.910
SO-50 18 Oct 11:03:04 11:05:15 13° 336° (NNW) 11:07:26 436.795
UWE-3 18 Oct 11:04:50 11:06:37 12° 303° (WNW) 11:08:23 435.000/436.395/437.385
YUBILEINY 18 Oct 11:10:22 11:19:00 69° 283° (WNW) 11:27:45 435.215
PCSat 18 Oct 11:10:53 11:15:47 33° 316° (NW) 11:20:42 145.827
PRISM 18 Oct 11:15:02 11:18:56 45° 260° (W) 11:22:51 437.425
TIGRISAT 18 Oct 11:15:06 11:19:07 29° 266° (W) 11:23:11 435.000
QB50P2 18 Oct 11:15:42 11:18:59 22° 64° (ENE) 11:22:17 145.880/145.840
NANOSAT C BR1 18 Oct 11:21:41 11:24:51 21° 63° (ENE) 11:28:01 145.865
Oscar 11 18 Oct 11:28:35 11:31:19 17° 298° (WNW) 11:34:03 .
ESTCUBE 1 18 Oct 11:32:10 11:33:12 11° 87° (E) 11:34:14 437.505/2401.250
LO-87 18 Oct 11:32:50 11:34:37 13° 90° (E) 11:36:23 145.935 - 145.965
DUCHIFAT 1 18 Oct 11:33:35 11:36:57 23° 65° (ENE) 11:40:22 145.980
nSIGHT-1 18 Oct 11:43:36 11:46:30 32° 143° (SE) 11:49:25 .
BUGSAT 1 18 Oct 11:53:28 11:54:50 11° 58° (ENE) 11:56:13 437.445
AIST 2D 18 Oct 11:57:01 12:00:29 59° 259° (W) 12:03:58 435.315
EO-88 18 Oct 12:07:36 12:10:51 32° 290° (WNW) 12:14:06 145.990 - 145.960
ISS 18 Oct 12:09:54 12:13:03 48° 146° (SSE) 12:16:13 437.550
Max Valier Satellite 18 Oct 12:12:02 12:14:57 22° 293° (WNW) 12:17:50 145.860
NO-84 18 Oct 12:21:01 12:24:05 24° 229° (SW) 12:26:55 435.350 FM
DELFI C3 18 Oct 12:21:48 12:24:15 16° 297° (WNW) 12:26:42 145.870
EO-79 18 Oct 12:26:01 12:30:17 83° 257° (WSW) 12:34:36 145.935-145.965
POLYITAN 1 18 Oct 12:30:02 12:34:19 76° 258° (WSW) 12:38:38 437.675
SPROUT 18 Oct 12:41:30 12:43:54 15° 90° (E) 12:46:18 437.525
RS-15 18 Oct 12:48:20 12:57:36 29° 258° (WSW) 13:06:34 29.354- 29.394
QB50P2 18 Oct 12:50:28 12:54:31 42° 262° (W) 12:58:37 145.880/145.840
NANOSAT C BR1 18 Oct 12:56:11 13:00:15 44° 261° (W) 13:04:22 145.865
PCSat 18 Oct 12:59:10 13:00:55 11° 340° (NNW) 13:02:42 145.827
M-CUBED/EXP-1 PRIME 18 Oct 13:03:50 13:06:51 31° 64° (ENE) 13:09:49 437.505
LO-87 18 Oct 13:04:46 13:08:18 48° 287° (WNW) 13:11:48 145.935 - 145.965
ESTCUBE 1 18 Oct 13:06:07 13:10:38 87° 289° (WNW) 13:15:07 437.505/2401.250
VELOX 1 18 Oct 13:07:10 13:10:19 19° 92° (E) 13:13:28 145.980
DUCHIFAT 1 18 Oct 13:08:28 13:12:26 38° 263° (W) 13:16:25 145.980
YUBILEINY 18 Oct 13:12:29 13:17:45 17° 307° (NW) 13:23:05 435.215
Oscar 19 18 Oct 13:18:52 13:23:45 44° 68° (ENE) 13:28:38 437.125/150
nSIGHT-1 18 Oct 13:19:33 13:22:42 52° 341° (NNW) 13:25:51 .
BEESAT 3 18 Oct 13:24:27 13:28:16 44° 120° (ESE) 13:32:07 437.485
BUGSAT 1 18 Oct 13:25:18 13:29:29 89° 252° (WSW) 13:33:45 437.445
AO-7 18 Oct 13:30:36 13:36:07 20° 43° (NE) 13:41:39 .
Gurwin Techsat 1B 18 Oct 13:31:12 13:36:09 41° 67° (ENE) 13:41:07 435.225
ISS 18 Oct 13:46:25 13:49:34 44° 345° (NNW) 13:52:44 437.550
SPROUT 18 Oct 14:15:55 14:20:12 61° 287° (WNW) 14:24:25 437.525
DX 1 18 Oct 14:20:36 14:24:20 27° 95° (E) 14:28:03 434.975-435.025
50 SAT 18 Oct 14:21:44 14:24:42 29° 97° (E) 14:27:39 437.505
SO-50 18 Oct 14:27:44 14:30:20 15° 27° (NNE) 14:32:56 436.795
M-CUBED/EXP-1 PRIME 18 Oct 14:39:06 14:41:24 17° 260° (W) 14:43:40 437.505
BEESAT 2 18 Oct 14:39:14 14:43:15 80° 125° (SE) 14:47:20 435.950
AO-85 18 Oct 14:41:45 14:45:33 57° 123° (ESE) 14:49:29 145.980
VELOX 1 18 Oct 14:42:44 14:47:01 49° 290° (WNW) 14:51:19 145.980
ESTCUBE 1 18 Oct 14:45:05 14:46:43 12° 303° (WNW) 14:48:21 437.505/2401.250
UKube-1 18 Oct 14:49:27 14:53:24 34° 97° (E) 14:57:20 .
nSIGHT-1 18 Oct 14:56:26 14:59:23 32° 1° (N) 15:02:20 .
Oscar 19 18 Oct 14:58:52 15:03:13 27° 266° (W) 15:07:36 437.125/150
BEESAT 3 18 Oct 15:02:34 15:05:59 26° 319° (NW) 15:09:24 437.485
Gurwin Techsat 1B 18 Oct 15:11:32 15:16:12 31° 265° (W) 15:20:53 435.225
AO-7 18 Oct 15:19:18 15:27:30 69° 65° (ENE) 15:35:44 .
BEESAT 18 Oct 15:20:20 15:21:27 11° 87° (E) 15:22:33 436.000
ISS 18 Oct 15:23:28 15:26:30 34° 6° (N) 15:29:33 437.550
ITAMSAT 1 18 Oct 15:25:32 15:30:26 44° 67° (ENE) 15:35:23 435.822/435.867
50 SAT 18 Oct 15:54:31 15:56:50 18° 294° (WNW) 15:59:08 437.505
DX 1 18 Oct 15:56:36 16:00:33 34° 293° (WNW) 16:04:29 434.975-435.025
SO-50 18 Oct 16:07:15 16:11:47 55° 48° (NE) 16:16:21 436.795
BEESAT 2 18 Oct 16:18:39 16:21:29 18° 325° (NW) 16:24:21 435.950
AO-85 18 Oct 16:23:14 16:26:17 21° 324° (NW) 16:29:26 145.980
UKube-1 18 Oct 16:25:40 16:29:18 27° 295° (WNW) 16:32:55 .
PCSat 18 Oct 16:29:07 16:32:54 19° 33° (NNE) 16:36:40 145.827
MOZHAYETS 4 18 Oct 16:30:14 16:34:47 58° 101° (E) 16:39:16
nSIGHT-1 18 Oct 16:32:51 16:36:02 62° 21° (NNE) 16:39:13 .
CUBESAT XI-V 18 Oct 16:36:26 16:39:23 17° 90° (E) 16:42:19 437.345
ITUPSAT 1 18 Oct 16:38:04 16:42:50 58° 101° (E) 16:47:33 437.325
BEESAT 18 Oct 16:55:07 16:59:57 86° 107° (ESE) 17:04:44 436.000
ISS 18 Oct 16:59:59 17:03:16 83° 27° (NNE) 17:06:33 437.550
ITAMSAT 1 18 Oct 17:05:41 17:10:04 27° 266° (W) 17:14:30 435.822/435.867
DOVE 4 18 Oct 17:07:56 17:11:54 43° 70° (ENE) 17:16:02 437.250
XW-2B 18 Oct 17:09:27 17:10:22 11° 60° (ENE) 17:11:17 145.730 - 145.750
AO-7 18 Oct 17:13:51 17:20:53 30° 266° (W) 17:27:58 .
CUTE-I 18 Oct 17:19:57 17:23:45 20° 58° (ENE) 17:27:32 437.470
XW-2C 18 Oct 17:30:36 17:33:15 18° 65° (ENE) 17:35:54 145.795 - 145.815
HO-68 18 Oct 17:34:25 17:39:13 20° 50° (NE) 17:44:01 435.675
SO-50 18 Oct 17:48:20 17:51:55 22° 246° (WSW) 17:55:31 436.795
MOZHAYETS 4 18 Oct 18:08:21 18:11:30 19° 299° (WNW) 18:14:38
nSIGHT-1 18 Oct 18:09:24 18:12:08 26° 219° (SW) 18:14:51 .
CUBEBUG 2 18 Oct 18:11:31 18:11:40 10° 55° (NE) 18:11:49 437.445
PCSat 18 Oct 18:11:48 18:17:15 73° 55° (NE) 18:22:40 145.827
CUBESAT XI-V 18 Oct 18:12:37 18:17:08 59° 288° (WNW) 18:21:39 437.345
KKS-1 18 Oct 18:13:19 18:17:37 44° 99° (E) 18:21:54 437.445
XW-2F 18 Oct 18:16:16 18:19:58 52° 73° (ENE) 18:23:39 145.980 - 146.000
LilacSat-2 18 Oct 18:16:42 18:20:29 61° 74° (ENE) 18:24:16 437.200
ITUPSAT 1 18 Oct 18:16:47 18:20:14 20° 300° (WNW) 18:23:41 437.325
KAITUO 1B 18 Oct 18:18:25 18:21:58 43° 72° (ENE) 18:25:31 145.475/437.950
XW-2D 18 Oct 18:26:46 18:30:35 78° 74° (ENE) 18:34:23 145.860 - 145.880
BEESAT 18 Oct 18:34:31 18:37:02 14° 303° (WNW) 18:39:33 436.000
NUDT-PHONESAT 18 Oct 18:36:05 18:39:47 68° 75° (ENE) 18:43:29 437.300
ISS 18 Oct 18:37:05 18:39:25 18° 223° (SW) 18:41:44 437.550
XW-2B 18 Oct 18:40:10 18:43:58 77° 258° (WSW) 18:47:47 145.730 - 145.750
DOVE 4 18 Oct 18:46:53 18:49:53 19° 269° (W) 18:52:58 437.250
UWE-3 18 Oct 18:51:31 18:54:04 15° 59° (ENE) 18:56:38 435.000/436.395/437.385
STARS 18 Oct 18:52:14 18:56:32 46° 99° (E) 19:00:48 437.465
CUTE-I 18 Oct 18:57:58 19:03:15 69° 257° (WSW) 19:08:36 437.470
XW-2C 18 Oct 19:03:34 19:07:10 39° 262° (W) 19:10:46 145.795 - 145.815
CUTE 1.7 + AOD 2 18 Oct 19:04:59 19:09:00 44° 71° (ENE) 19:13:02 437.475
XW-2A 18 Oct 19:10:59 19:13:15 17° 65° (ENE) 19:15:30 145.665 - 145.685
SEEDS 18 Oct 19:16:29 19:20:19 36° 69° (ENE) 19:24:10 437.485
HO-68 18 Oct 19:18:43 19:25:52 79° 71° (ENE) 19:33:06 435.675
YUBILEINY 18 Oct 19:21:18 19:26:53 18° 54° (NE) 19:32:26 435.215
CUBEBUG 2 18 Oct 19:42:43 19:47:20 66° 73° (ENE) 19:52:04 437.445
AAUSAT CUBESAT 2 18 Oct 19:46:56 19:50:40 35° 69° (ENE) 19:54:24 437.432
AO-73 18 Oct 19:47:57 19:51:37 24° 65° (ENE) 19:55:17 145.935
STRAND 1 18 Oct 19:49:46 19:53:35 20° 91° (E) 19:57:21 437.568
KKS-1 18 Oct 19:50:25 19:53:55 23° 297° (WNW) 19:57:24 437.445
XW-2F 18 Oct 19:52:32 19:54:23 13° 270° (W) 19:56:14 145.980 - 146.000
LilacSat-2 18 Oct 19:53:45 19:55:08 12° 271° (W) 19:56:32 437.200
KAITUO 1B 18 Oct 19:53:54 19:56:10 15° 269° (W) 19:58:26 145.475/437.950
PCSat 18 Oct 19:56:20 20:00:03 19° 254° (WSW) 20:03:46 145.827
BEESAT 3 18 Oct 20:01:51 20:03:58 14° 30° (NNE) 20:06:04 437.485
ZACube-1 18 Oct 20:07:56 20:12:13 40° 70° (ENE) 20:16:31 437.345
FO-29 18 Oct 20:22:15 20:23:48 11° 83° (E) 20:25:22 435.910
UWE-3 18 Oct 20:25:13 20:29:53 80° 259° (WSW) 20:34:36 435.000/436.395/437.385
STARS 18 Oct 20:29:13 20:32:35 21° 297° (WNW) 20:35:56 437.465
O/OREOS (USA 219) 18 Oct 20:30:34 20:31:08 10° 96° (E) 20:31:42 437.305
CUTE 1.7 + AOD 2 18 Oct 20:42:00 20:45:03 19° 268° (W) 20:48:06 437.475
XW-2A 18 Oct 20:42:34 20:45:43 34° 262° (W) 20:48:53 145.665 - 145.685
Oscar 11 18 Oct 20:48:27 20:52:44 63° 73° (ENE) 20:57:02 .
SEEDS 18 Oct 20:52:48 20:56:07 22° 267° (W) 20:59:25 437.485
HO-68 18 Oct 21:09:00 21:14:22 22° 270° (W) 21:19:46 435.675
EO-88 18 Oct 21:15:28 21:17:29 14° 63° (ENE) 21:19:30 145.990 - 145.960
YUBILEINY 18 Oct 21:16:44 21:25:32 71° 78° (ENE) 21:34:21 435.215
BEESAT 2 18 Oct 21:17:04 21:20:07 20° 36° (NE) 21:23:08 435.950
Max Valier Satellite 18 Oct 21:19:38 21:22:31 21° 66° (ENE) 21:25:23 145.860
CUBEBUG 2 18 Oct 21:21:35 21:24:25 16° 272° (W) 21:27:16 437.445
AAUSAT CUBESAT 2 18 Oct 21:22:55 21:26:11 23° 267° (W) 21:29:28 437.432
AO-73 18 Oct 21:23:16 21:27:36 42° 262° (W) 21:31:58 145.935
STRAND 1 18 Oct 21:28:03 21:33:08 59° 289° (WNW) 21:38:11 437.568
AO-85 18 Oct 21:29:31 21:33:00 22° 37° (NE) 21:36:40 145.980
DELFI C3 18 Oct 21:33:43 21:37:24 41° 71° (ENE) 21:41:06 145.870
BEESAT 3 18 Oct 21:38:17 21:42:17 67° 52° (NE) 21:46:10 437.485
ZACube-1 18 Oct 21:44:53 21:48:37 24° 267° (W) 21:52:23 437.345
FO-29 18 Oct 22:03:18 22:09:57 60° 101° (E) 22:17:19 435.910
O/OREOS (USA 219) 18 Oct 22:05:10 22:09:44 87° 114° (ESE) 22:14:21 437.305
Oscar 11 18 Oct 22:26:56 22:29:17 14° 271° (W) 22:31:39 .
ESTCUBE 1 18 Oct 22:33:37 22:36:17 16° 60° (ENE) 22:38:57 437.505/2401.250
EO-88 18 Oct 22:47:12 22:50:44 49° 260° (W) 22:54:19 145.990 - 145.960
UNISAT 6 18 Oct 22:47:36 22:52:00 39° 97° (E) 22:56:15 437.425
Max Valier Satellite 18 Oct 22:52:47 22:56:10 32° 264° (W) 22:59:33 145.860
PRISM 18 Oct 22:53:44 22:56:41 19° 93° (E) 22:59:37 437.425
BEESAT 2 18 Oct 22:54:13 22:58:15 68° 237° (WSW) 23:02:14 435.950
TIGRISAT 18 Oct 23:02:52 23:07:26 51° 99° (E) 23:11:51 435.000
AO-85 18 Oct 23:09:19 23:13:48 72° 237° (WSW) 23:18:39 145.980
DELFI C3 18 Oct 23:09:42 23:12:20 17° 268° (W) 23:14:59 145.870
STRAND 1 18 Oct 23:11:02 23:11:16 10° 309° (NW) 23:11:29 437.568
YUBILEINY 18 Oct 23:14:29 23:21:34 29° 280° (W) 23:28:40 435.215
BEESAT 3 18 Oct 23:17:15 23:19:18 14° 250° (WSW) 23:21:19 437.485
SPROUT 18 Oct 23:37:28 23:40:15 17° 62° (ENE) 23:43:03 437.525
LO-87 18 Oct 23:42:47 23:46:22 82° 257° (WSW) 23:50:01 145.935 - 145.965
O/OREOS (USA 219) 18 Oct 23:47:07 23:49:50 15° 315° (NW) 23:52:33 437.305
FO-29 18 Oct 23:48:58 23:54:42 32° 297° (WNW) 00:01:00 435.910
VELOX 1 19 Oct 00:06:58 00:10:29 24° 64° (ENE) 00:14:01 145.980
ESTCUBE 1 19 Oct 00:08:05 00:12:34 68° 258° (WSW) 00:17:04 437.505/2401.250
EO-79 19 Oct 00:09:16 00:11:22 13° 89° (E) 00:13:26 145.935-145.965
POLYITAN 1 19 Oct 00:13:12 00:15:36 15° 90° (E) 00:17:59 437.675
UNISAT 6 19 Oct 00:24:39 00:28:30 26° 295° (WNW) 00:32:17 437.425
PRISM 19 Oct 00:28:14 00:32:08 43° 290° (WNW) 00:36:04 437.425
QB50P2 19 Oct 00:32:26 00:36:01 25° 94° (E) 00:39:32 145.880/145.840
NANOSAT C BR1 19 Oct 00:37:43 00:41:09 23° 94° (E) 00:44:32 145.865
TIGRISAT 19 Oct 00:40:17 00:43:44 21° 298° (WNW) 00:47:09 435.000
DUCHIFAT 1 19 Oct 00:49:23 00:53:01 27° 95° (E) 00:56:36 145.980
AIST 2D 19 Oct 00:51:55 00:55:24 74° 283° (WNW) 00:58:51 435.315
50 SAT 19 Oct 00:53:40 00:55:49 17° 65° (ENE) 00:57:59 437.505
RS-15 19 Oct 01:00:36 01:11:49 44° 109° (ESE) 01:23:01 29.354- 29.394
BUGSAT 1 19 Oct 01:06:24 01:07:37 11° 88° (E) 01:08:50 437.445
SPROUT 19 Oct 01:11:30 01:15:42 56° 259° (W) 01:19:58 437.525
DX 1 19 Oct 01:18:38 01:22:31 34° 67° (ENE) 01:26:26 434.975-435.025
Oscar 19 19 Oct 01:29:36 01:31:18 12° 86° (E) 01:33:00 437.125/150
VELOX 1 19 Oct 01:42:39 01:46:44 38° 262° (W) 01:50:51 145.980
EO-79 19 Oct 01:43:18 01:47:34 66° 287° (WNW) 01:51:46 145.935-145.965
Gurwin Techsat 1B 19 Oct 01:46:18 01:48:22 12° 86° (E) 01:50:25 435.225
UKube-1 19 Oct 01:46:18 01:50:20 41° 69° (ENE) 01:54:24 .
POLYITAN 1 19 Oct 01:47:33 01:51:46 60° 287° (WNW) 01:55:57 437.675
MOZHAYETS 4 19 Oct 02:01:21 02:02:43 11° 56° (NE) 02:04:06
QB50P2 19 Oct 02:07:58 02:11:50 34° 292° (WNW) 02:15:41 145.880/145.840
ITUPSAT 1 19 Oct 02:12:29 02:15:01 14° 57° (ENE) 02:17:33 437.325
NANOSAT C BR1 19 Oct 02:13:01 02:16:57 37° 291° (WNW) 02:20:50 145.865
M-CUBED/EXP-1 PRIME 19 Oct 02:13:23 02:15:21 14° 99° (E) 02:17:23 437.505
DUCHIFAT 1 19 Oct 02:24:54 02:28:40 32° 293° (WNW) 02:32:26 145.980
50 SAT 19 Oct 02:24:59 02:27:55 31° 263° (W) 02:30:53 437.505
BEESAT 19 Oct 02:28:10 02:31:34 20° 60° (ENE) 02:34:58 436.000
BUGSAT 1 19 Oct 02:39:15 02:43:31 78° 286° (WNW) 02:47:43 437.445
DX 1 19 Oct 02:55:06 02:58:44 26° 265° (W) 03:02:25 434.975-435.025
Oscar 19 19 Oct 03:06:14 03:11:24 85° 104° (ESE) 03:16:32 437.125/150
RS-15 19 Oct 03:11:30 03:23:49 69° 314° (NW) 03:36:04 29.354- 29.394
AO-7 19 Oct 03:19:15 03:24:18 17° 87° (E) 03:29:20 .
UKube-1 19 Oct 03:23:15 03:26:32 21° 267° (W) 03:29:49 .
Gurwin Techsat 1B 19 Oct 03:23:45 03:29:07 84° 104° (ESE) 03:34:27 435.225
MOZHAYETS 4 19 Oct 03:34:26 03:39:05 77° 73° (ENE) 03:43:43
ITAMSAT 1 19 Oct 03:37:28 03:39:21 12° 87° (E) 03:41:13 435.822/435.867
NO-84 19 Oct 03:38:11 03:40:56 17° 127° (SE) 03:43:40 435.350 FM
CUBESAT XI-V 19 Oct 03:42:11 03:45:52 24° 64° (ENE) 03:49:33 437.345
M-CUBED/EXP-1 PRIME 19 Oct 03:46:38 03:49:58 45° 293° (WNW) 03:53:29 437.505
ITUPSAT 1 19 Oct 03:47:20 03:52:09 87° 255° (WSW) 03:57:00 437.325
BEESAT 19 Oct 04:04:10 04:08:54 60° 258° (WSW) 04:13:40 436.000
Oscar 19 19 Oct 04:47:01 04:50:03 16° 303° (WNW) 04:53:04 437.125/150
DOVE 4 19 Oct 05:04:56 05:06:37 12° 87° (E) 05:08:19 437.250
Gurwin Techsat 1B 19 Oct 05:05:05 05:08:23 17° 303° (WNW) 05:11:41 435.225
AO-7 19 Oct 05:10:03 05:18:24 77° 107° (ESE) 05:26:44 .
NO-84 19 Oct 05:13:34 05:17:53 84° 142° (SE) 05:22:04 435.350 FM
KKS-1 19 Oct 05:13:47 05:18:07 58° 72° (ENE) 05:22:31 437.445
ITAMSAT 1 19 Oct 05:14:19 05:19:36 84° 105° (ESE) 05:24:51 435.822/435.867
MOZHAYETS 4 19 Oct 05:14:39 05:16:47 13° 272° (W) 05:18:55
CUBESAT XI-V 19 Oct 05:18:35 05:23:00 43° 262° (W) 05:27:25 437.345
RS-15 19 Oct 05:27:55 05:38:59 36° 344° (NNW) 05:49:49 29.354- 29.394
ITUPSAT 1 19 Oct 05:29:19 05:30:41 11° 273° (W) 05:32:03 437.325
STARS 19 Oct 05:51:11 05:55:30 59° 72° (ENE) 05:59:51 437.465
O/OREOS (USA 219) 19 Oct 06:33:17 06:37:32 35° 56° (NE) 06:41:46 437.305
XW-2C 19 Oct 06:33:46 06:36:13 16° 92° (E) 06:38:38 145.795 - 145.815
DOVE 4 19 Oct 06:39:59 06:44:55 85° 105° (ESE) 06:50:05 437.250
HO-68 19 Oct 06:46:25 06:48:48 12° 83° (E) 06:51:12 435.675
NO-84 19 Oct 06:51:49 06:55:41 32° 343° (NNW) 06:59:21 435.350 FM
KKS-1 19 Oct 06:52:17 06:55:04 16° 269° (W) 06:57:50 437.445
ITAMSAT 1 19 Oct 06:55:09 06:58:24 17° 303° (WNW) 07:01:38 435.822/435.867
AO-7 19 Oct 07:03:35 07:10:28 30° 309° (NW) 07:17:22 .
STRAND 1 19 Oct 07:08:05 07:12:49 39° 66° (ENE) 07:17:34 437.568
CUTE-I 19 Oct 07:12:03 07:17:03 38° 97° (E) 07:22:02 437.470
XW-2F 19 Oct 07:19:14 07:22:52 50° 100° (E) 07:26:29 145.980 - 146.000
KAITUO 1B 19 Oct 07:20:13 07:23:43 40° 98° (E) 07:27:12 145.475/437.950
LilacSat-2 19 Oct 07:21:01 07:24:46 61° 101° (E) 07:28:29 437.200
STARS 19 Oct 07:29:34 07:32:13 16° 269° (W) 07:34:54 437.465
XW-2D 19 Oct 07:30:18 07:34:03 77° 102° (ESE) 07:37:47 145.860 - 145.880
CUBEBUG 2 19 Oct 07:32:42 07:34:34 12° 86° (E) 07:36:25 437.445
NUDT-PHONESAT 19 Oct 07:36:57 07:40:36 62° 101° (E) 07:44:12 437.300
